Preview of NWS' New Version of Forecast
This preview is not operational and should not be used for support decisions.

Regional Weather Roundup (RWR)

Issued by National Weather Service (NWS)

                            
000
ASUS46 KPQR 202310
RWROR 

OREGON REGIONAL WEATHER ROUNDUP
NATIONAL WEATHER SERVICE PORTLAND OR
300 PM PST WED FEB 20 2019

NOTE: "FAIR" INDICATES FEW OR NO CLOUDS BELOW 12,000 FEET WITH
NO SIGNIFICANT WEATHER AND/OR OBSTRUCTIONS TO VISIBILITY.

ORZ001>013-210000-
NORTHWEST OREGON

  
CITY           SKY/WX    TMP DP  RH WIND       PRES   REMARKS
ASTORIA        PTSUNNY   45  37  73 NW12      29.82S                  
TILLAMOOK      PTSUNNY   46  37  71 W12       29.85S                  
NEWPORT        PTSUNNY   45  37  76 NW6       29.88                   
PORTLAND       PTSUNNY   43  38  82 E10       29.82S                  
VANCOUVER WA   MOSUNNY   43  37  79 E6        29.81F                  
SCAPPOOSE      MOSUNNY   46  35  65 SW6       29.81S                  
HILLSBORO      CLOUDY    44  38  79 S5        29.80F                  
AURORA         MOSUNNY   43  39  86 S8        29.83S                  
MCMINNVILLE    PTSUNNY   44  38  79 SE7       29.80F                  
SALEM          CLOUDY    46  36  68 SW12      29.80F                  
CORVALLIS      PTSUNNY   43  38  82 SW7       29.84F                  
EUGENE         LGT RAIN  41  36  82 W7        29.85S                  
$$

ORZ021-028-210000-
SOUTHWEST OREGON

  
CITY           SKY/WX    TMP DP  RH WIND       PRES   REMARKS
NORTH BEND     PTSUNNY   47  40  76 NW13      29.89F                  
BROOKINGS      LGT RAIN  44  39  82 NW10G16   29.91F                  
ROSEBURG       CLOUDY    41  36  82 VRB3      29.86F                  
SEXTON SUMMIT  SNOW      30  29  96 VRB3      29.73F VSB 1/4          
GRANTS PASS    PTSUNNY   41  37  87 NW3       29.85                   
MEDFORD        CLOUDY    43  30  60 W7        29.81F                  
$$

ORZ014>016-041-210000-
COLUMBIA GORGE

  
CITY           SKY/WX    TMP DP  RH WIND       PRES   REMARKS
TROUTDALE      MOSUNNY   41  37  86 CALM      29.82S                  
HOOD RIVER     MOSUNNY   43  32  65 NW9       29.78S                  
THE DALLES     CLOUDY    34  28  79 NE10      29.83R WCI  26          
$$

ORZ029>031-041-044-049-050-061>064-502-503-505>511-210000-
EASTERN OREGON

  
CITY           SKY/WX    TMP DP  RH WIND       PRES   REMARKS
MADRAS         NOT AVBL                                               
REDMOND        MOSUNNY   41  19  41 NW8       29.66F                  
BEND           MOSUNNY   39  19  45 N12       29.66F WCI  32          
PRINEVILLE     MOSUNNY   37  18  44 W12       29.66  WCI  30          
KLAMATH FALLS  PTSUNNY   33  22  63 W13       29.69F WCI  24          
LAKEVIEW       FLURRIES  28  21  75 W18       29.66S WCI  15          
HERMISTON      CLOUDY    33  26  75 E7        29.84S                  
PENDLETON      FLURRIES  29  24  82 NE7       29.79R                  
JOHN DAY       LGT SNOW  31  28  90 W6        29.66                   
MEACHAM        CLOUDY    24  22  91 VRB3      29.66R FOG              
LA GRANDE      MOSUNNY   33  24  69 NW16      29.69R WCI  23          
BAKER CITY     PTSUNNY   34  25  69 N10       29.64S WCI  26          
BURNS          PTSUNNY   30  21  69 NW18G24   29.63S WCI  18          
ROME             N/A     34  20  56 W14       29.61S WCI  25          
ONTARIO        MOSUNNY   39  29  67 N6        29.69S                  
$$